Tracking 29892 objects as of 21-Nov-2024
HD Live streaming from Space Station
objects crossing your sky now

COSMOS 1275 DEB

Track COSMOS 1275 DEB now!
10-day predictions


NORAD ID: 12768
Int'l Code: 1981-053DM
Perigee: 911.0 km
Apogee: 984.3 km
Inclination: 82.9 °
Period: 103.8 minutes
Semi major axis: 7318 km
RCS: 0.042 m2 (small)
Launch date: June 4, 1981
Source: Commonwealth of Independent States (former USSR) (CIS)
Launch site: PLESETSK MISSILE AND SPACE COMPLEX (PKMTR)

Note: This is SATELLITE DEBRIS
Your satellite tracking list
Your tracking list is empty




NASA's NSSDC Master Catalog

Two Line Element Set (TLE):
1 12768U 81053DM  24325.58520242  .00000924  00000-0  77435-3 0  9999
2 12768  82.9312 174.9577 0050030 304.5500  84.1798 13.86618270180318
Source of the keplerian elements: AFSPC